Time,TemperatureF,DewpointF,PressureIn,WindDirection,WindDirectionDegrees,WindSpeedMPH,WindSpeedGustMPH,Humidity,HourlyPrecipIn,Conditions,Clouds,dailyrainin,SoftwareType,DateUTC
2013-05-20 00:01:00,65.9,65.5,30.09,ESE,109,0.0,0.0,99,0.00,,,0.26,HR-IXPWINDi_r2_v1.2.,2013-05-20 04:01:00,
2013-05-20 00:06:00,65.9,65.5,30.09,ESE,110,0.0,0.0,99,0.00,,,0.00,HR-IXPWINDi_r2_v1.2.,2013-05-20 04:06:00,
2013-05-20 00:11:00,65.8,65.4,30.08,ESE,110,0.0,0.0,99,0.00,,,0.00,HR-IXPWINDi_r2_v1.2.,2013-05-20 04:11:00,
2013-05-20 00:16:00,65.8,65.4,30.08,ESE,109,0.0,0.0,99,0.00,,,0.00,HR-IXPWINDi_r2_v1.2.,2013-05-20 04:16:00,
2013-05-20 00:21:00,65.8,65.4,30.08,ESE,109,0.0,0.0,99,0.00,,,0.00,HR-IXPWINDi_r2_v1.2.,2013-05-20 04:21:00,
2013-05-20 00:26:00,65.7,65.3,30.08,ESE,109,0.0,0.0,99,0.00,,,0.00,HR-IXPWINDi_r2_v1.2.,2013-05-20 04:26:00,
2013-05-20 00:31:00,65.7,65.3,30.08,ESE,110,0.0,0.0,99,0.00,,,0.00,HR-IXPWINDi_r2_v1.2.,2013-05-20 04:31:00,
2013-05-20 00:36:00,65.6,65.2,30.08,ESE,110,0.0,0.0,99,0.00,,,0.00,HR-IXPWINDi_r2_v1.2.,2013-05-20 04:36:00,
2013-05-20 00:42:00,65.6,65.2,30.08,ESE,110,0.0,0.0,99,0.00,,,0.00,HR-IXPWINDi_r2_v1.2.,2013-05-20 04:42:00,
2013-05-20 00:47:00,65.6,65.2,30.07,ESE,110,0.0,0.0,99,0.00,,,0.00,HR-IXPWINDi_r2_v1.2.,2013-05-20 04:47:00,
2013-05-20 00:52:00,65.6,65.2,30.08,ESE,109,0.0,0.0,99,0.00,,,0.00,HR-IXPWINDi_r2_v1.2.,2013-05-20 04:52:00,
2013-05-20 00:57:00,65.5,65.1,30.08,ESE,110,0.0,0.0,99,0.00,,,0.00,HR-IXPWINDi_r2_v1.2.,2013-05-20 04:57:00,
2013-05-20 01:02:00,65.6,65.2,30.08,ESE,110,0.0,0.0,99,0.00,,,0.00,HR-IXPWINDi_r2_v1.2.,2013-05-20 05:02:00,
2013-05-20 01:07:00,65.6,65.2,30.08,ESE,109,0.0,0.0,99,0.00,,,0.00,HR-IXPWINDi_r2_v1.2.,2013-05-20 05:07:00,
2013-05-20 01:13:00,65.6,65.2,30.07,ESE,110,0.0,0.0,99,0.00,,,0.00,HR-IXPWINDi_r2_v1.2.,2013-05-20 05:13:00,
2013-05-20 01:18:00,65.6,65.2,30.07,ESE,110,0.0,0.0,99,0.00,,,0.00,HR-IXPWINDi_r2_v1.2.,2013-05-20 05:18:00,
2013-05-20 01:23:00,65.7,65.3,30.07,ESE,109,0.0,0.0,99,0.00,,,0.00,HR-IXPWINDi_r2_v1.2.,2013-05-20 05:23:00,
2013-05-20 01:28:00,65.7,65.3,30.07,ESE,110,0.0,0.0,99,0.00,,,0.00,HR-IXPWINDi_r2_v1.2.,2013-05-20 05:28:00,
2013-05-20 01:33:00,65.7,65.3,30.07,ESE,109,0.0,0.0,99,0.00,,,0.00,HR-IXPWINDi_r2_v1.2.,2013-05-20 05:33:00,
2013-05-20 01:38:00,65.7,65.3,30.07,ESE,110,0.0,0.0,99,0.00,,,0.00,HR-IXPWINDi_r2_v1.2.,2013-05-20 05:38:00,
2013-05-20 01:44:00,65.7,65.3,30.07,ESE,110,0.0,0.0,99,0.00,,,0.00,HR-IXPWINDi_r2_v1.2.,2013-05-20 05:44:00,
2013-05-20 01:49:00,65.7,65.3,30.07,ESE,109,0.0,0.0,99,0.00,,,0.00,HR-IXPWINDi_r2_v1.2.,2013-05-20 05:49:00,
2013-05-20 01:54:00,65.7,65.3,30.07,ESE,110,0.0,0.0,99,0.00,,,0.00,HR-IXPWINDi_r2_v1.2.,2013-05-20 05:54:00,
2013-05-20 01:59:00,65.6,65.2,30.07,ESE,110,0.0,0.0,99,0.00,,,0.00,HR-IXPWINDi_r2_v1.2.,2013-05-20 05:59:00,
2013-05-20 02:05:00,65.6,65.2,30.07,ESE,109,0.0,0.0,99,0.00,,,0.00,HR-IXPWINDi_r2_v1.2.,2013-05-20 06:05:00,
2013-05-20 02:10:00,65.6,65.2,30.07,ESE,109,0.0,0.0,99,0.00,,,0.00,HR-IXPWINDi_r2_v1.2.,2013-05-20 06:10:00,
2013-05-20 02:15:00,65.6,65.2,30.07,ESE,109,0.0,0.0,99,0.00,,,0.00,HR-IXPWINDi_r2_v1.2.,2013-05-20 06:15:00,
2013-05-20 02:20:00,65.5,65.1,30.06,ESE,109,0.0,0.0,99,0.00,,,0.00,HR-IXPWINDi_r2_v1.2.,2013-05-20 06:20:00,
2013-05-20 02:25:00,65.5,65.1,30.07,ESE,109,0.0,0.0,99,0.00,,,0.00,HR-IXPWINDi_r2_v1.2.,2013-05-20 06:25:00,
2013-05-20 02:30:00,65.5,65.1,30.06,ESE,109,0.0,0.0,99,0.00,,,0.00,HR-IXPWINDi_r2_v1.2.,2013-05-20 06:30:00,
2013-05-20 02:35:00,65.6,65.2,30.06,ESE,109,0.0,0.0,99,0.00,,,0.00,HR-IXPWINDi_r2_v1.2.,2013-05-20 06:35:00,
2013-05-20 02:41:00,65.6,65.2,30.06,ESE,109,0.0,0.0,99,0.00,,,0.00,HR-IXPWINDi_r2_v1.2.,2013-05-20 06:41:00,
2013-05-20 02:47:00,65.6,65.2,30.06,ESE,109,0.0,0.0,99,0.00,,,0.00,HR-IXPWINDi_r2_v1.2.,2013-05-20 06:47:00,
2013-05-20 02:52:00,65.6,65.2,30.06,ESE,109,0.0,0.0,99,0.00,,,0.00,HR-IXPWINDi_r2_v1.2.,2013-05-20 06:52:00,
2013-05-20 02:57:00,65.6,65.2,30.06,ESE,109,0.0,0.0,99,0.00,,,0.00,HR-IXPWINDi_r2_v1.2.,2013-05-20 06:57:00,
2013-05-20 03:02:00,65.6,65.2,30.07,ESE,110,0.0,0.0,99,0.00,,,0.00,HR-IXPWINDi_r2_v1.2.,2013-05-20 07:02:00,
2013-05-20 03:07:00,65.5,65.1,30.07,ESE,109,0.0,0.0,99,0.00,,,0.00,HR-IXPWINDi_r2_v1.2.,2013-05-20 07:07:00,
2013-05-20 03:12:00,65.5,65.1,30.07,ESE,109,0.0,0.0,99,0.00,,,0.00,HR-IXPWINDi_r2_v1.2.,2013-05-20 07:12:00,
2013-05-20 03:17:00,65.4,65.0,30.07,ESE,109,0.0,0.0,99,0.00,,,0.00,HR-IXPWINDi_r2_v1.2.,2013-05-20 07:17:00,
2013-05-20 03:23:00,65.3,64.9,30.07,ESE,110,0.0,1.0,99,0.00,,,0.00,HR-IXPWINDi_r2_v1.2.,2013-05-20 07:23:00,
2013-05-20 03:28:00,65.2,64.8,30.07,ESE,110,0.0,1.0,99,0.00,,,0.00,HR-IXPWINDi_r2_v1.2.,2013-05-20 07:28:00,
2013-05-20 03:33:00,65.2,64.8,30.07,ESE,109,0.0,0.0,99,0.00,,,0.00,HR-IXPWINDi_r2_v1.2.,2013-05-20 07:33:00,
2013-05-20 03:38:00,65.2,64.8,30.07,ESE,110,0.0,0.0,99,0.00,,,0.00,HR-IXPWINDi_r2_v1.2.,2013-05-20 07:38:00,
2013-05-20 03:43:00,65.2,64.8,30.07,ESE,109,0.0,0.0,99,0.00,,,0.00,HR-IXPWINDi_r2_v1.2.,2013-05-20 07:43:00,
2013-05-20 03:48:00,65.2,64.8,30.07,ESE,110,0.0,0.0,99,0.00,,,0.00,HR-IXPWINDi_r2_v1.2.,2013-05-20 07:48:00,
2013-05-20 03:53:00,65.1,64.7,30.06,ESE,110,0.0,0.0,99,0.00,,,0.00,HR-IXPWINDi_r2_v1.2.,2013-05-20 07:53:00,
2013-05-20 03:58:00,65.1,64.7,30.06,ESE,109,0.0,0.0,99,0.00,,,0.00,HR-IXPWINDi_r2_v1.2.,2013-05-20 07:58:00,
2013-05-20 04:03:00,65.1,64.7,30.06,ESE,110,0.0,0.0,99,0.00,,,0.00,HR-IXPWINDi_r2_v1.2.,2013-05-20 08:03:00,
2013-05-20 04:08:00,64.9,64.5,30.06,ESE,109,0.0,0.0,99,0.00,,,0.00,HR-IXPWINDi_r2_v1.2.,2013-05-20 08:08:00,
2013-05-20 04:14:00,64.8,64.4,30.06,ESE,109,0.0,0.0,99,0.00,,,0.00,HR-IXPWINDi_r2_v1.2.,2013-05-20 08:14:00,
2013-05-20 04:19:00,64.8,64.4,30.06,ESE,109,0.0,0.0,99,0.00,,,0.00,HR-IXPWINDi_r2_v1.2.,2013-05-20 08:19:00,
2013-05-20 04:24:00,64.7,64.3,30.07,ESE,109,0.0,0.0,99,0.00,,,0.00,HR-IXPWINDi_r2_v1.2.,2013-05-20 08:24:00,
2013-05-20 04:29:00,64.5,64.1,30.06,ESE,109,0.0,0.0,99,0.00,,,0.00,HR-IXPWINDi_r2_v1.2.,2013-05-20 08:29:00,
2013-05-20 04:34:00,64.4,64.0,30.06,ESE,109,0.0,0.0,99,0.00,,,0.00,HR-IXPWINDi_r2_v1.2.,2013-05-20 08:34:00,
2013-05-20 04:39:00,64.3,63.9,30.06,ESE,109,0.0,0.0,99,0.00,,,0.00,HR-IXPWINDi_r2_v1.2.,2013-05-20 08:39:00,
2013-05-20 04:44:00,64.3,63.9,30.06,ESE,110,0.0,2.0,99,0.00,,,0.00,HR-IXPWINDi_r2_v1.2.,2013-05-20 08:44:00,
2013-05-20 04:49:00,64.3,63.9,30.06,ESE,109,0.0,2.0,99,0.00,,,0.00,HR-IXPWINDi_r2_v1.2.,2013-05-20 08:49:00,
2013-05-20 04:55:00,64.3,63.9,30.06,ESE,109,0.0,1.0,99,0.00,,,0.00,HR-IXPWINDi_r2_v1.2.,2013-05-20 08:55:00,
2013-05-20 05:00:00,64.2,63.8,30.07,ESE,110,0.0,0.0,99,0.00,,,0.00,HR-IXPWINDi_r2_v1.2.,2013-05-20 09:00:00,
2013-05-20 05:05:00,64.2,63.8,30.07,ESE,109,0.0,0.0,99,0.00,,,0.00,HR-IXPWINDi_r2_v1.2.,2013-05-20 09:05:00,
2013-05-20 05:10:00,64.2,63.8,30.06,ESE,110,0.0,0.0,99,0.00,,,0.00,HR-IXPWINDi_r2_v1.2.,2013-05-20 09:10:00,
2013-05-20 05:15:00,64.1,63.7,30.06,ESE,109,0.0,0.0,99,0.00,,,0.00,HR-IXPWINDi_r2_v1.2.,2013-05-20 09:15:00,
2013-05-20 05:21:00,64.0,63.6,30.07,ESE,109,0.0,0.0,99,0.00,,,0.00,HR-IXPWINDi_r2_v1.2.,2013-05-20 09:21:00,
2013-05-20 05:26:00,63.9,63.5,30.07,ESE,109,0.0,0.0,99,0.00,,,0.00,HR-IXPWINDi_r2_v1.2.,2013-05-20 09:26:00,
2013-05-20 05:31:00,63.8,63.4,30.07,ESE,110,0.0,0.0,99,0.00,,,0.00,HR-IXPWINDi_r2_v1.2.,2013-05-20 09:31:00,
2013-05-20 05:36:00,63.8,63.4,30.07,ESE,109,0.0,0.0,99,0.00,,,0.00,HR-IXPWINDi_r2_v1.2.,2013-05-20 09:36:00,
2013-05-20 05:41:00,63.6,63.2,30.07,ESE,109,0.0,0.0,99,0.00,,,0.00,HR-IXPWINDi_r2_v1.2.,2013-05-20 09:41:00,
2013-05-20 05:46:00,63.6,63.2,30.07,ESE,109,0.0,0.0,99,0.00,,,0.00,HR-IXPWINDi_r2_v1.2.,2013-05-20 09:46:00,
2013-05-20 05:51:00,63.5,63.1,30.07,ESE,109,0.0,0.0,99,0.00,,,0.00,HR-IXPWINDi_r2_v1.2.,2013-05-20 09:51:00,
2013-05-20 05:57:00,63.3,62.9,30.07,ESE,109,0.0,0.0,99,0.00,,,0.00,HR-IXPWINDi_r2_v1.2.,2013-05-20 09:57:00,
2013-05-20 06:02:00,63.2,62.8,30.07,ESE,109,0.0,0.0,99,0.00,,,0.00,HR-IXPWINDi_r2_v1.2.,2013-05-20 10:02:00,
2013-05-20 06:07:00,63.1,62.7,30.07,ESE,109,0.0,0.0,99,0.00,,,0.00,HR-IXPWINDi_r2_v1.2.,2013-05-20 10:07:00,
2013-05-20 06:13:00,63.0,62.6,30.07,ESE,109,0.0,0.0,99,0.00,,,0.00,HR-IXPWINDi_r2_v1.2.,2013-05-20 10:13:00,
2013-05-20 06:18:00,62.9,62.5,30.07,ESE,109,0.0,0.0,99,0.00,,,0.00,HR-IXPWINDi_r2_v1.2.,2013-05-20 10:18:00,
2013-05-20 06:23:00,62.8,62.4,30.07,ESE,109,0.0,0.0,99,0.00,,,0.00,HR-IXPWINDi_r2_v1.2.,2013-05-20 10:23:00,
2013-05-20 06:28:00,62.7,62.3,30.07,ESE,109,0.0,0.0,99,0.00,,,0.00,HR-IXPWINDi_r2_v1.2.,2013-05-20 10:28:00,
2013-05-20 06:34:00,62.7,62.3,30.07,ESE,110,0.0,0.0,99,0.00,,,0.00,HR-IXPWINDi_r2_v1.2.,2013-05-20 10:34:00,
2013-05-20 06:39:00,62.8,62.4,30.07,ESE,109,0.0,0.0,99,0.00,,,0.00,HR-IXPWINDi_r2_v1.2.,2013-05-20 10:39:00,
2013-05-20 06:44:00,62.9,62.5,30.07,ESE,109,0.0,0.0,99,0.00,,,0.00,HR-IXPWINDi_r2_v1.2.,2013-05-20 10:44:00,
2013-05-20 06:49:00,63.0,62.9,30.07,ESE,109,0.0,0.0,100,0.00,,,0.00,HR-IXPWINDi_r2_v1.2.,2013-05-20 10:49:00,
2013-05-20 06:55:00,63.2,63.1,30.08,ESE,109,0.0,0.0,100,0.00,,,0.00,HR-IXPWINDi_r2_v1.2.,2013-05-20 10:55:00,
2013-05-20 07:00:00,63.3,63.2,30.08,ESE,109,0.0,0.0,100,0.00,,,0.00,HR-IXPWINDi_r2_v1.2.,2013-05-20 11:00:00,
2013-05-20 07:05:00,63.4,63.0,30.08,ESE,109,0.0,0.0,99,0.00,,,0.00,HR-IXPWINDi_r2_v1.2.,2013-05-20 11:05:00,
2013-05-20 07:10:00,63.5,63.1,30.08,ESE,109,0.0,0.0,99,0.00,,,0.00,HR-IXPWINDi_r2_v1.2.,2013-05-20 11:10:00,
2013-05-20 07:15:00,63.7,63.3,30.08,ESE,110,0.0,0.0,99,0.00,,,0.00,HR-IXPWINDi_r2_v1.2.,2013-05-20 11:15:00,
2013-05-20 07:20:00,63.8,63.7,30.09,ESE,109,0.0,0.0,100,0.00,,,0.00,HR-IXPWINDi_r2_v1.2.,2013-05-20 11:20:00,
2013-05-20 07:25:00,63.9,63.8,30.09,ESE,110,0.0,0.0,100,0.00,,,0.00,HR-IXPWINDi_r2_v1.2.,2013-05-20 11:25:00,
2013-05-20 07:31:00,64.1,64.0,30.09,ESE,110,0.0,0.0,100,0.00,,,0.00,HR-IXPWINDi_r2_v1.2.,2013-05-20 11:31:00,
2013-05-20 07:36:00,64.3,64.2,30.09,ESE,110,0.0,0.0,100,0.00,,,0.00,HR-IXPWINDi_r2_v1.2.,2013-05-20 11:36:00,
2013-05-20 07:41:00,64.6,64.5,30.09,ESE,110,0.0,0.0,100,0.00,,,0.00,HR-IXPWINDi_r2_v1.2.,2013-05-20 11:41:00,
2013-05-20 07:46:00,64.9,64.8,30.09,ESE,110,0.0,0.0,100,0.00,,,0.00,HR-IXPWINDi_r2_v1.2.,2013-05-20 11:46:00,
2013-05-20 07:51:00,65.1,65.0,30.09,ESE,110,0.0,0.0,100,0.00,,,0.00,HR-IXPWINDi_r2_v1.2.,2013-05-20 11:51:00,
2013-05-20 07:56:00,65.3,65.2,30.10,ESE,110,0.0,0.0,100,0.00,,,0.00,HR-IXPWINDi_r2_v1.2.,2013-05-20 11:56:00,
2013-05-20 08:02:00,65.4,65.3,30.10,ESE,110,0.0,0.0,100,0.00,,,0.00,HR-IXPWINDi_r2_v1.2.,2013-05-20 12:02:00,
2013-05-20 08:07:00,65.6,65.5,30.10,ESE,110,0.0,0.0,100,0.00,,,0.00,HR-IXPWINDi_r2_v1.2.,2013-05-20 12:07:00,
2013-05-20 08:12:00,65.8,65.7,30.10,ESE,110,0.0,0.0,100,0.00,,,0.00,HR-IXPWINDi_r2_v1.2.,2013-05-20 12:12:00,
2013-05-20 08:17:00,65.9,65.8,30.10,ESE,110,0.0,0.0,100,0.00,,,0.00,HR-IXPWINDi_r2_v1.2.,2013-05-20 12:17:00,
2013-05-20 08:23:00,65.9,65.8,30.10,ESE,110,0.0,0.0,100,0.00,,,0.00,HR-IXPWINDi_r2_v1.2.,2013-05-20 12:23:00,
2013-05-20 08:28:00,66.1,66.0,30.11,ESE,110,0.0,0.0,100,0.00,,,0.00,HR-IXPWINDi_r2_v1.2.,2013-05-20 12:28:00,
2013-05-20 08:33:00,66.1,66.0,30.11,ESE,110,0.0,0.0,100,0.00,,,0.00,HR-IXPWINDi_r2_v1.2.,2013-05-20 12:33:00,
2013-05-20 08:38:00,66.2,66.1,30.11,ESE,110,0.0,0.0,100,0.00,,,0.00,HR-IXPWINDi_r2_v1.2.,2013-05-20 12:38:00,
2013-05-20 08:43:00,66.2,66.1,30.11,ESE,110,0.0,0.0,100,0.00,,,0.00,HR-IXPWINDi_r2_v1.2.,2013-05-20 12:43:00,
2013-05-20 08:48:00,66.1,66.0,30.11,ESE,110,0.0,0.0,100,0.00,,,0.00,HR-IXPWINDi_r2_v1.2.,2013-05-20 12:48:00,
2013-05-20 08:53:00,66.2,66.1,30.11,ESE,110,0.0,0.0,100,0.00,,,0.00,HR-IXPWINDi_r2_v1.2.,2013-05-20 12:53:00,
2013-05-20 08:58:00,66.2,66.1,30.11,ESE,110,0.0,0.0,100,0.00,,,0.00,HR-IXPWINDi_r2_v1.2.,2013-05-20 12:58:00,
2013-05-20 09:04:00,66.2,66.1,30.11,ESE,110,0.0,0.0,100,0.00,,,0.00,HR-IXPWINDi_r2_v1.2.,2013-05-20 13:04:00,
2013-05-20 09:09:00,66.3,66.2,30.11,ESE,110,0.0,0.0,100,0.00,,,0.00,HR-IXPWINDi_r2_v1.2.,2013-05-20 13:09:00,
2013-05-20 09:14:00,66.3,66.2,30.11,ESE,110,0.0,0.0,100,0.00,,,0.00,HR-IXPWINDi_r2_v1.2.,2013-05-20 13:14:00,
2013-05-20 09:19:00,66.2,66.1,30.11,ESE,110,0.0,0.0,100,0.00,,,0.00,HR-IXPWINDi_r2_v1.2.,2013-05-20 13:19:00,
2013-05-20 09:24:00,66.3,66.2,30.11,ESE,110,0.0,0.0,100,0.00,,,0.00,HR-IXPWINDi_r2_v1.2.,2013-05-20 13:24:00,
2013-05-20 09:29:00,66.5,66.4,30.11,ESE,110,0.0,0.0,100,0.00,,,0.00,HR-IXPWINDi_r2_v1.2.,2013-05-20 13:29:00,
2013-05-20 09:35:00,66.8,66.7,30.11,ESE,110,0.0,0.0,100,0.00,,,0.00,HR-IXPWINDi_r2_v1.2.,2013-05-20 13:35:00,
2013-05-20 09:40:00,66.7,66.6,30.11,ESE,110,0.0,0.0,100,0.00,,,0.00,HR-IXPWINDi_r2_v1.2.,2013-05-20 13:40:00,
2013-05-20 09:45:00,66.8,66.7,30.11,ESE,110,0.0,0.0,100,0.00,,,0.00,HR-IXPWINDi_r2_v1.2.,2013-05-20 13:45:00,
2013-05-20 09:51:00,66.6,66.2,30.11,ESE,110,0.0,1.0,99,0.00,,,0.00,HR-IXPWINDi_r2_v1.2.,2013-05-20 13:51:00,
2013-05-20 09:56:00,66.6,66.2,30.11,ESE,110,0.0,1.0,99,0.00,,,0.00,HR-IXPWINDi_r2_v1.2.,2013-05-20 13:56:00,
2013-05-20 10:01:00,66.7,66.3,30.11,ESE,110,0.0,1.0,99,0.00,,,0.00,HR-IXPWINDi_r2_v1.2.,2013-05-20 14:01:00,
2013-05-20 10:06:00,67.0,66.9,30.11,ESE,110,0.0,1.0,100,0.00,,,0.00,HR-IXPWINDi_r2_v1.2.,2013-05-20 14:06:00,
2013-05-20 10:12:00,67.0,66.6,30.11,ESE,110,0.0,0.0,99,0.00,,,0.00,HR-IXPWINDi_r2_v1.2.,2013-05-20 14:12:00,
2013-05-20 10:17:00,67.5,67.4,30.11,ESE,110,0.0,0.0,100,0.00,,,0.00,HR-IXPWINDi_r2_v1.2.,2013-05-20 14:17:00,
2013-05-20 10:22:00,67.7,67.3,30.11,ESE,110,0.0,0.0,99,0.00,,,0.00,HR-IXPWINDi_r2_v1.2.,2013-05-20 14:22:00,
2013-05-20 10:27:00,67.7,67.3,30.11,ESE,110,0.0,0.0,99,0.00,,,0.00,HR-IXPWINDi_r2_v1.2.,2013-05-20 14:27:00,
2013-05-20 10:32:00,67.7,67.3,30.11,ESE,110,0.0,0.0,99,0.00,,,0.00,HR-IXPWINDi_r2_v1.2.,2013-05-20 14:32:00,
2013-05-20 10:38:00,67.7,67.0,30.11,ESE,110,0.0,1.0,98,0.00,,,0.00,HR-IXPWINDi_r2_v1.2.,2013-05-20 14:38:00,
2013-05-20 10:43:00,68.1,67.4,30.11,ESE,110,0.0,1.0,98,0.00,,,0.00,HR-IXPWINDi_r2_v1.2.,2013-05-20 14:43:00,
2013-05-20 10:48:00,68.4,67.7,30.11,ESE,110,0.0,2.0,98,0.00,,,0.00,HR-IXPWINDi_r2_v1.2.,2013-05-20 14:48:00,
2013-05-20 10:53:00,68.6,67.3,30.11,ESE,110,0.0,2.0,96,0.00,,,0.00,HR-IXPWINDi_r2_v1.2.,2013-05-20 14:53:00,
2013-05-20 10:59:00,69.1,67.2,30.10,ESE,110,0.0,2.0,94,0.00,,,0.00,HR-IXPWINDi_r2_v1.2.,2013-05-20 14:59:00,
2013-05-20 11:04:00,69.9,68.3,30.10,ESE,110,0.0,2.0,95,0.00,,,0.00,HR-IXPWINDi_r2_v1.2.,2013-05-20 15:04:00,
2013-05-20 11:09:00,70.7,68.2,30.10,ESE,110,0.0,2.0,92,0.00,,,0.00,HR-IXPWINDi_r2_v1.2.,2013-05-20 15:09:00,
2013-05-20 11:14:00,71.3,69.1,30.10,ESE,110,0.0,2.0,93,0.00,,,0.00,HR-IXPWINDi_r2_v1.2.,2013-05-20 15:14:00,
2013-05-20 11:19:00,72.0,69.8,30.10,ESE,111,1.0,2.0,93,0.00,,,0.00,HR-IXPWINDi_r2_v1.2.,2013-05-20 15:19:00,
2013-05-20 11:25:00,72.4,69.6,30.09,ESE,111,0.0,2.0,91,0.00,,,0.00,HR-IXPWINDi_r2_v1.2.,2013-05-20 15:25:00,
2013-05-20 11:30:00,72.5,68.7,30.09,ESE,111,0.0,1.0,88,0.00,,,0.00,HR-IXPWINDi_r2_v1.2.,2013-05-20 15:30:00,
2013-05-20 11:35:00,72.7,68.9,30.09,ESE,111,0.0,1.0,88,0.00,,,0.00,HR-IXPWINDi_r2_v1.2.,2013-05-20 15:35:00,
2013-05-20 11:40:00,73.5,70.3,30.09,ESE,111,1.0,2.0,90,0.00,,,0.00,HR-IXPWINDi_r2_v1.2.,2013-05-20 15:40:00,
2013-05-20 11:45:00,74.0,70.2,30.09,ESE,111,0.0,2.0,88,0.00,,,0.00,HR-IXPWINDi_r2_v1.2.,2013-05-20 15:45:00,
2013-05-20 11:50:00,74.4,70.6,30.09,ESE,111,1.0,1.0,88,0.00,,,0.00,HR-IXPWINDi_r2_v1.2.,2013-05-20 15:50:00,
2013-05-20 11:55:00,74.8,70.9,30.08,ESE,112,0.0,2.0,88,0.00,,,0.00,HR-IXPWINDi_r2_v1.2.,2013-05-20 15:55:00,
2013-05-20 12:00:00,75.2,72.0,30.08,ESE,112,0.0,2.0,90,0.00,,,0.00,HR-IXPWINDi_r2_v1.2.,2013-05-20 16:00:00,
2013-05-20 12:05:00,75.3,69.0,30.08,East,90,0.0,2.0,81,0.00,,,0.00,HR-IXPWINDi_r2_v1.2.,2013-05-20 16:05:00,
2013-05-20 12:11:00,74.8,68.5,30.08,ESE,105,0.0,2.0,81,0.00,,,0.00,HR-IXPWINDi_r2_v1.2.,2013-05-20 16:11:00,
2013-05-20 12:16:00,74.3,68.4,30.08,ESE,105,1.0,2.0,82,0.00,,,0.00,HR-IXPWINDi_r2_v1.2.,2013-05-20 16:16:00,
2013-05-20 12:21:00,73.9,68.4,30.08,ESE,104,1.0,3.0,83,0.00,,,0.00,HR-IXPWINDi_r2_v1.2.,2013-05-20 16:21:00,
2013-05-20 12:26:00,74.0,69.1,30.08,NE,47,3.0,4.0,85,0.00,,,0.00,HR-IXPWINDi_r2_v1.2.,2013-05-20 16:26:00,
2013-05-20 12:31:00,74.7,69.5,30.07,NE,49,1.0,4.0,84,0.00,,,0.00,HR-IXPWINDi_r2_v1.2.,2013-05-20 16:31:00,
2013-05-20 12:36:00,75.3,69.0,30.07,NNE,27,1.0,4.0,81,0.00,,,0.00,HR-IXPWINDi_r2_v1.2.,2013-05-20 16:36:00,
2013-05-20 12:42:00,75.4,69.1,30.07,NNE,27,1.0,2.0,81,0.00,,,0.00,HR-IXPWINDi_r2_v1.2.,2013-05-20 16:42:00,
2013-05-20 12:47:00,75.5,69.2,30.07,ENE,57,0.0,3.0,81,0.00,,,0.00,HR-IXPWINDi_r2_v1.2.,2013-05-20 16:47:00,
2013-05-20 12:52:00,75.5,68.5,30.07,ENE,57,1.0,3.0,79,0.00,,,0.00,HR-IXPWINDi_r2_v1.2.,2013-05-20 16:52:00,
2013-05-20 12:57:00,75.7,68.7,30.06,ENE,57,0.0,2.0,79,0.00,,,0.00,HR-IXPWINDi_r2_v1.2.,2013-05-20 16:57:00,
2013-05-20 13:03:00,75.9,68.5,30.06,NNW,338,0.0,3.0,78,0.00,,,0.00,HR-IXPWINDi_r2_v1.2.,2013-05-20 17:03:00,
2013-05-20 13:08:00,75.9,68.1,30.06,ENE,72,0.0,3.0,77,0.00,,,0.00,HR-IXPWINDi_r2_v1.2.,2013-05-20 17:08:00,
2013-05-20 13:13:00,75.8,67.3,30.06,ENE,59,0.0,3.0,75,0.00,,,0.00,HR-IXPWINDi_r2_v1.2.,2013-05-20 17:13:00,
2013-05-20 13:18:00,75.7,67.9,30.06,NE,44,1.0,3.0,77,0.00,,,0.00,HR-IXPWINDi_r2_v1.2.,2013-05-20 17:18:00,
2013-05-20 13:23:00,75.7,68.3,30.06,NE,44,0.0,3.0,78,0.00,,,0.00,HR-IXPWINDi_r2_v1.2.,2013-05-20 17:23:00,
2013-05-20 13:29:00,76.0,69.0,30.05,SE,145,1.0,5.0,79,0.00,,,0.00,HR-IXPWINDi_r2_v1.2.,2013-05-20 17:29:00,
2013-05-20 13:34:00,76.2,68.8,30.05,East,87,0.0,5.0,78,0.00,,,0.00,HR-IXPWINDi_r2_v1.2.,2013-05-20 17:34:00,
2013-05-20 13:39:00,76.4,68.6,30.04,East,87,0.0,4.0,77,0.00,,,0.00,HR-IXPWINDi_r2_v1.2.,2013-05-20 17:39:00,
2013-05-20 13:44:00,77.0,68.8,30.05,ENE,69,5.0,6.0,76,0.00,,,0.00,HR-IXPWINDi_r2_v1.2.,2013-05-20 17:44:00,
2013-05-20 13:49:00,77.9,69.3,30.05,North,360,0.0,6.0,75,0.00,,,0.00,HR-IXPWINDi_r2_v1.2.,2013-05-20 17:49:00,
2013-05-20 13:54:00,77.8,69.2,30.04,NW,318,2.0,7.0,75,0.00,,,0.00,HR-IXPWINDi_r2_v1.2.,2013-05-20 17:54:00,
2013-05-20 13:59:00,77.5,68.5,30.04,NE,43,2.0,8.0,74,0.00,,,0.00,HR-IXPWINDi_r2_v1.2.,2013-05-20 17:59:00,
2013-05-20 14:04:00,76.7,66.9,30.04,ENE,61,0.0,8.0,72,0.00,,,0.00,HR-IXPWINDi_r2_v1.2.,2013-05-20 18:04:00,
2013-05-20 14:09:00,76.3,68.1,30.04,ENE,64,0.0,5.0,76,0.00,,,0.00,HR-IXPWINDi_r2_v1.2.,2013-05-20 18:09:00,
2013-05-20 14:15:00,76.0,67.8,30.04,NE,53,0.0,3.0,76,0.00,,,0.00,HR-IXPWINDi_r2_v1.2.,2013-05-20 18:15:00,
2013-05-20 14:20:00,76.1,67.9,30.04,North,5,0.0,3.0,76,0.00,,,0.00,HR-IXPWINDi_r2_v1.2.,2013-05-20 18:20:00,
2013-05-20 14:25:00,76.3,67.7,30.04,SW,219,1.0,6.0,75,0.00,,,0.00,HR-IXPWINDi_r2_v1.2.,2013-05-20 18:25:00,
2013-05-20 14:30:00,76.8,68.6,30.04,SE,141,0.0,6.0,76,0.00,,,0.00,HR-IXPWINDi_r2_v1.2.,2013-05-20 18:30:00,
2013-05-20 14:36:00,76.7,68.5,30.04,SE,140,0.0,3.0,76,0.00,,,0.00,HR-IXPWINDi_r2_v1.2.,2013-05-20 18:36:00,
2013-05-20 14:41:00,76.4,68.6,30.04,SE,140,0.0,2.0,77,0.00,,,0.00,HR-IXPWINDi_r2_v1.2.,2013-05-20 18:41:00,
2013-05-20 14:46:00,76.0,68.2,30.04,SE,135,0.0,2.0,77,0.00,,,0.00,HR-IXPWINDi_r2_v1.2.,2013-05-20 18:46:00,
2013-05-20 14:51:00,75.5,68.1,30.04,SE,135,0.0,2.0,78,0.00,,,0.00,HR-IXPWINDi_r2_v1.2.,2013-05-20 18:51:00,
2013-05-20 14:56:00,75.2,68.2,30.04,SE,135,0.0,2.0,79,0.00,,,0.00,HR-IXPWINDi_r2_v1.2.,2013-05-20 18:56:00,
2013-05-20 15:01:00,74.8,67.4,30.04,SE,135,0.0,1.0,78,0.00,,,0.00,HR-IXPWINDi_r2_v1.2.,2013-05-20 19:01:00,
2013-05-20 15:07:00,74.6,68.3,30.05,SE,135,0.0,2.0,81,0.00,,,0.00,HR-IXPWINDi_r2_v1.2.,2013-05-20 19:07:00,
2013-05-20 15:12:00,74.4,68.5,30.05,SE,135,0.0,2.0,82,0.00,,,0.00,HR-IXPWINDi_r2_v1.2.,2013-05-20 19:12:00,
2013-05-20 15:17:00,74.1,68.2,30.05,SE,135,0.0,1.0,82,0.00,,,0.00,HR-IXPWINDi_r2_v1.2.,2013-05-20 19:17:00,
2013-05-20 15:22:00,73.7,68.5,30.05,SE,135,0.0,1.0,84,0.00,,,0.01,HR-IXPWINDi_r2_v1.2.,2013-05-20 19:22:00,
2013-05-20 15:27:00,73.1,68.9,30.04,SE,135,0.0,1.0,87,0.14,,,0.02,HR-IXPWINDi_r2_v1.2.,2013-05-20 19:27:00,
2013-05-20 15:32:00,72.5,68.7,30.04,SE,135,0.0,1.0,88,0.06,,,0.02,HR-IXPWINDi_r2_v1.2.,2013-05-20 19:32:00,
2013-05-20 15:38:00,72.0,68.8,30.04,SE,135,0.0,1.0,90,0.04,,,0.02,HR-IXPWINDi_r2_v1.2.,2013-05-20 19:38:00,
2013-05-20 15:43:00,71.7,68.9,30.03,SE,135,1.0,1.0,91,0.00,,,0.02,HR-IXPWINDi_r2_v1.2.,2013-05-20 19:43:00,
2013-05-20 15:48:00,71.3,68.5,30.03,SE,135,0.0,1.0,91,0.00,,,0.03,HR-IXPWINDi_r2_v1.2.,2013-05-20 19:48:00,
2013-05-20 15:53:00,71.2,68.7,30.03,SE,135,0.0,1.0,92,0.00,,,0.03,HR-IXPWINDi_r2_v1.2.,2013-05-20 19:53:00,
2013-05-20 15:58:00,71.1,68.9,30.03,SE,135,0.0,1.0,93,0.00,,,0.03,HR-IXPWINDi_r2_v1.2.,2013-05-20 19:58:00,
2013-05-20 16:03:00,71.0,69.1,30.03,SE,135,0.0,1.0,94,0.00,,,0.03,HR-IXPWINDi_r2_v1.2.,2013-05-20 20:03:00,
2013-05-20 16:08:00,71.0,69.1,30.03,SE,135,0.0,1.0,94,0.00,,,0.03,HR-IXPWINDi_r2_v1.2.,2013-05-20 20:08:00,
2013-05-20 16:14:00,71.0,69.4,30.03,SE,135,0.0,1.0,95,0.00,,,0.03,HR-IXPWINDi_r2_v1.2.,2013-05-20 20:14:00,
2013-05-20 16:19:00,71.1,69.5,30.03,SE,135,0.0,0.0,95,0.00,,,0.03,HR-IXPWINDi_r2_v1.2.,2013-05-20 20:19:00,
2013-05-20 16:24:00,71.3,70.0,30.02,SE,135,0.0,0.0,96,0.00,,,0.04,HR-IXPWINDi_r2_v1.2.,2013-05-20 20:24:00,
2013-05-20 16:29:00,71.2,69.6,30.02,SE,135,0.0,1.0,95,0.00,,,0.04,HR-IXPWINDi_r2_v1.2.,2013-05-20 20:29:00,
2013-05-20 16:35:00,71.3,69.7,30.01,SE,135,0.0,1.0,95,0.00,,,0.04,HR-IXPWINDi_r2_v1.2.,2013-05-20 20:35:00,
2013-05-20 16:40:00,71.5,70.2,30.01,SE,135,0.0,1.0,96,0.00,,,0.04,HR-IXPWINDi_r2_v1.2.,2013-05-20 20:40:00,
2013-05-20 16:45:00,71.6,70.3,30.01,SE,135,0.0,0.0,96,0.00,,,0.04,HR-IXPWINDi_r2_v1.2.,2013-05-20 20:45:00,
2013-05-20 16:50:00,71.8,70.5,30.01,SE,135,0.0,0.0,96,0.00,,,0.04,HR-IXPWINDi_r2_v1.2.,2013-05-20 20:50:00,
2013-05-20 16:56:00,71.9,70.6,30.01,SE,135,0.0,0.0,96,0.00,,,0.04,HR-IXPWINDi_r2_v1.2.,2013-05-20 20:56:00,
2013-05-20 17:01:00,72.1,70.8,30.01,SE,135,0.0,0.0,96,0.00,,,0.04,HR-IXPWINDi_r2_v1.2.,2013-05-20 21:01:00,
2013-05-20 17:06:00,72.6,71.3,30.01,SE,135,0.0,0.0,96,0.00,,,0.04,HR-IXPWINDi_r2_v1.2.,2013-05-20 21:06:00,
2013-05-20 17:11:00,72.8,70.9,30.01,SE,135,0.0,2.0,94,0.00,,,0.04,HR-IXPWINDi_r2_v1.2.,2013-05-20 21:11:00,
2013-05-20 17:16:00,73.0,70.8,30.01,SE,134,0.0,2.0,93,0.00,,,0.04,HR-IXPWINDi_r2_v1.2.,2013-05-20 21:16:00,
2013-05-20 17:21:00,73.3,71.4,30.01,SE,135,0.0,2.0,94,0.00,,,0.04,HR-IXPWINDi_r2_v1.2.,2013-05-20 21:21:00,
2013-05-20 17:26:00,73.4,71.5,30.01,SE,135,0.0,0.0,94,0.00,,,0.04,HR-IXPWINDi_r2_v1.2.,2013-05-20 21:26:00,
2013-05-20 17:31:00,73.6,71.4,30.00,SE,135,0.0,0.0,93,0.00,,,0.04,HR-IXPWINDi_r2_v1.2.,2013-05-20 21:31:00,
2013-05-20 17:36:00,73.8,71.6,30.00,SE,135,1.0,1.0,93,0.00,,,0.04,HR-IXPWINDi_r2_v1.2.,2013-05-20 21:36:00,
2013-05-20 17:41:00,73.9,71.0,30.00,SE,135,0.0,1.0,91,0.00,,,0.04,HR-IXPWINDi_r2_v1.2.,2013-05-20 21:41:00,
2013-05-20 17:47:00,74.2,72.0,30.00,SE,135,0.0,1.0,93,0.00,,,0.04,HR-IXPWINDi_r2_v1.2.,2013-05-20 21:47:00,
2013-05-20 17:52:00,74.4,71.5,30.00,SE,134,0.0,1.0,91,0.00,,,0.04,HR-IXPWINDi_r2_v1.2.,2013-05-20 21:52:00,
2013-05-20 17:57:00,74.6,71.7,30.00,SE,132,0.0,2.0,91,0.00,,,0.04,HR-IXPWINDi_r2_v1.2.,2013-05-20 21:57:00,
2013-05-20 18:02:00,74.6,71.4,30.00,SE,132,0.0,2.0,90,0.00,,,0.04,HR-IXPWINDi_r2_v1.2.,2013-05-20 22:02:00,
2013-05-20 18:07:00,74.7,71.8,30.00,SE,132,0.0,1.0,91,0.00,,,0.04,HR-IXPWINDi_r2_v1.2.,2013-05-20 22:07:00,
2013-05-20 18:12:00,74.6,71.7,30.00,SE,132,0.0,1.0,91,0.00,,,0.04,HR-IXPWINDi_r2_v1.2.,2013-05-20 22:12:00,
2013-05-20 18:17:00,74.6,71.4,30.00,SE,132,0.0,1.0,90,0.00,,,0.04,HR-IXPWINDi_r2_v1.2.,2013-05-20 22:17:00,
2013-05-20 18:22:00,74.6,71.7,30.00,SE,132,0.0,1.0,91,0.00,,,0.04,HR-IXPWINDi_r2_v1.2.,2013-05-20 22:22:00,
2013-05-20 18:28:00,74.6,71.4,30.00,SE,132,0.0,1.0,90,0.00,,,0.04,HR-IXPWINDi_r2_v1.2.,2013-05-20 22:28:00,
2013-05-20 18:33:00,74.5,71.6,30.01,SE,132,0.0,1.0,91,0.00,,,0.04,HR-IXPWINDi_r2_v1.2.,2013-05-20 22:33:00,
2013-05-20 18:38:00,74.3,70.8,30.01,SE,132,0.0,1.0,89,0.00,,,0.04,HR-IXPWINDi_r2_v1.2.,2013-05-20 22:38:00,
2013-05-20 18:43:00,74.2,71.3,30.01,SE,132,0.0,0.0,91,0.00,,,0.04,HR-IXPWINDi_r2_v1.2.,2013-05-20 22:43:00,
2013-05-20 18:49:00,74.0,71.1,30.02,SE,132,0.0,0.0,91,0.00,,,0.04,HR-IXPWINDi_r2_v1.2.,2013-05-20 22:49:00,
2013-05-20 18:54:00,73.9,71.0,30.01,SE,132,0.0,0.0,91,0.00,,,0.04,HR-IXPWINDi_r2_v1.2.,2013-05-20 22:54:00,
2013-05-20 18:59:00,73.5,70.3,30.02,SE,132,0.0,0.0,90,0.00,,,0.04,HR-IXPWINDi_r2_v1.2.,2013-05-20 22:59:00,
2013-05-20 19:04:00,73.3,70.5,30.02,SE,132,0.0,0.0,91,0.00,,,0.04,HR-IXPWINDi_r2_v1.2.,2013-05-20 23:04:00,
2013-05-20 19:09:00,73.1,69.6,30.02,SE,132,0.0,1.0,89,0.00,,,0.04,HR-IXPWINDi_r2_v1.2.,2013-05-20 23:09:00,
2013-05-20 19:15:00,72.9,69.7,30.02,SE,132,0.0,1.0,90,0.00,,,0.04,HR-IXPWINDi_r2_v1.2.,2013-05-20 23:15:00,
2013-05-20 19:20:00,72.7,69.9,30.03,SE,132,0.0,0.0,91,0.00,,,0.04,HR-IXPWINDi_r2_v1.2.,2013-05-20 23:20:00,
2013-05-20 19:25:00,72.6,69.8,30.02,SE,132,0.0,0.0,91,0.00,,,0.04,HR-IXPWINDi_r2_v1.2.,2013-05-20 23:25:00,
2013-05-20 19:30:00,72.3,69.5,30.02,SE,132,0.0,0.0,91,0.00,,,0.04,HR-IXPWINDi_r2_v1.2.,2013-05-20 23:30:00,
2013-05-20 19:35:00,72.0,69.2,30.03,SE,132,0.0,0.0,91,0.00,,,0.04,HR-IXPWINDi_r2_v1.2.,2013-05-20 23:35:00,
2013-05-20 19:40:00,71.8,69.3,30.02,SE,132,0.0,0.0,92,0.00,,,0.04,HR-IXPWINDi_r2_v1.2.,2013-05-20 23:40:00,
2013-05-20 19:46:00,71.7,69.5,30.03,SE,132,0.0,0.0,93,0.00,,,0.04,HR-IXPWINDi_r2_v1.2.,2013-05-20 23:46:00,
2013-05-20 19:51:00,71.6,69.4,30.03,SE,132,0.0,0.0,93,0.00,,,0.04,HR-IXPWINDi_r2_v1.2.,2013-05-20 23:51:00,
2013-05-20 19:56:00,71.4,69.5,30.03,SE,132,0.0,0.0,94,0.00,,,0.04,HR-IXPWINDi_r2_v1.2.,2013-05-20 23:56:00,
2013-05-20 20:01:00,71.3,69.4,30.03,SE,132,0.0,0.0,94,0.00,,,0.04,HR-IXPWINDi_r2_v1.2.,2013-05-21 00:01:00,
2013-05-20 20:06:00,71.1,69.2,30.04,SE,132,0.0,0.0,94,0.00,,,0.04,HR-IXPWINDi_r2_v1.2.,2013-05-21 00:06:00,
2013-05-20 20:12:00,70.9,69.3,30.03,SE,132,0.0,0.0,95,0.00,,,0.04,HR-IXPWINDi_r2_v1.2.,2013-05-21 00:12:00,
2013-05-20 20:17:00,70.8,69.2,30.03,SE,132,0.0,0.0,95,0.00,,,0.04,HR-IXPWINDi_r2_v1.2.,2013-05-21 00:17:00,
2013-05-20 20:22:00,70.6,69.0,30.03,SE,132,0.0,0.0,95,0.00,,,0.04,HR-IXPWINDi_r2_v1.2.,2013-05-21 00:22:00,
2013-05-20 20:27:00,70.4,68.8,30.03,SE,132,0.0,0.0,95,0.00,,,0.04,HR-IXPWINDi_r2_v1.2.,2013-05-21 00:27:00,
2013-05-20 20:32:00,70.2,68.6,30.04,SE,132,0.0,0.0,95,0.00,,,0.04,HR-IXPWINDi_r2_v1.2.,2013-05-21 00:32:00,
2013-05-20 20:37:00,70.0,68.4,30.04,SE,132,0.0,0.0,95,0.00,,,0.04,HR-IXPWINDi_r2_v1.2.,2013-05-21 00:37:00,
2013-05-20 20:43:00,69.8,68.5,30.04,SE,132,0.0,0.0,96,0.00,,,0.04,HR-IXPWINDi_r2_v1.2.,2013-05-21 00:43:00,
2013-05-20 20:48:00,69.7,68.4,30.03,SE,132,1.0,2.0,96,0.00,,,0.04,HR-IXPWINDi_r2_v1.2.,2013-05-21 00:48:00,
2013-05-20 20:53:00,69.6,68.6,30.03,SE,132,0.0,2.0,97,0.00,,,0.04,HR-IXPWINDi_r2_v1.2.,2013-05-21 00:53:00,
2013-05-20 20:58:00,69.5,68.5,30.03,SE,132,0.0,2.0,97,0.00,,,0.04,HR-IXPWINDi_r2_v1.2.,2013-05-21 00:58:00,
2013-05-20 21:03:00,69.4,68.4,30.03,SE,132,0.0,0.0,97,0.00,,,0.04,HR-IXPWINDi_r2_v1.2.,2013-05-21 01:03:00,
2013-05-20 21:09:00,69.2,68.2,30.03,SE,132,0.0,0.0,97,0.00,,,0.04,HR-IXPWINDi_r2_v1.2.,2013-05-21 01:09:00,
2013-05-20 21:14:00,69.2,68.2,30.03,SE,132,0.0,0.0,97,0.00,,,0.04,HR-IXPWINDi_r2_v1.2.,2013-05-21 01:14:00,
2013-05-20 21:19:00,69.1,68.1,30.04,SE,132,0.0,0.0,97,0.00,,,0.04,HR-IXPWINDi_r2_v1.2.,2013-05-21 01:19:00,
2013-05-20 21:25:00,69.1,68.1,30.04,SE,132,0.0,1.0,97,0.00,,,0.04,HR-IXPWINDi_r2_v1.2.,2013-05-21 01:25:00,
2013-05-20 21:30:00,69.1,68.1,30.03,SE,132,0.0,1.0,97,0.00,,,0.04,HR-IXPWINDi_r2_v1.2.,2013-05-21 01:30:00,
2013-05-20 21:35:00,69.0,68.0,30.03,SE,132,0.0,0.0,97,0.00,,,0.04,HR-IXPWINDi_r2_v1.2.,2013-05-21 01:35:00,
2013-05-20 21:40:00,69.0,68.0,30.02,SE,132,0.0,0.0,97,0.00,,,0.04,HR-IXPWINDi_r2_v1.2.,2013-05-21 01:40:00,
2013-05-20 21:46:00,68.9,67.9,30.02,SE,132,0.0,0.0,97,0.00,,,0.04,HR-IXPWINDi_r2_v1.2.,2013-05-21 01:46:00,
2013-05-20 21:51:00,68.8,67.8,30.02,SE,132,0.0,0.0,97,0.00,,,0.04,HR-IXPWINDi_r2_v1.2.,2013-05-21 01:51:00,
2013-05-20 21:56:00,68.6,67.6,30.02,SE,132,0.0,0.0,97,0.00,,,0.04,HR-IXPWINDi_r2_v1.2.,2013-05-21 01:56:00,
2013-05-20 22:01:00,68.4,67.4,30.02,SE,132,0.0,0.0,97,0.00,,,0.04,HR-IXPWINDi_r2_v1.2.,2013-05-21 02:01:00,
2013-05-20 22:06:00,68.3,67.3,30.03,SE,132,0.0,0.0,97,0.00,,,0.04,HR-IXPWINDi_r2_v1.2.,2013-05-21 02:06:00,
2013-05-20 22:12:00,68.1,67.2,30.02,SE,132,0.0,0.0,97,0.00,,,0.04,HR-IXPWINDi_r2_v1.2.,2013-05-21 02:12:00,
2013-05-20 22:17:00,68.0,67.1,30.02,SE,132,0.0,0.0,97,0.00,,,0.04,HR-IXPWINDi_r2_v1.2.,2013-05-21 02:17:00,
2013-05-20 22:22:00,67.9,67.0,30.02,SE,132,0.0,0.0,97,0.00,,,0.04,HR-IXPWINDi_r2_v1.2.,2013-05-21 02:22:00,
2013-05-20 22:27:00,67.7,66.8,30.02,SE,132,0.0,0.0,97,0.00,,,0.04,HR-IXPWINDi_r2_v1.2.,2013-05-21 02:27:00,
2013-05-20 22:32:00,67.6,66.7,30.02,SE,132,0.0,0.0,97,0.00,,,0.04,HR-IXPWINDi_r2_v1.2.,2013-05-21 02:32:00,
2013-05-20 22:38:00,67.4,66.5,30.02,SE,132,0.0,0.0,97,0.00,,,0.04,HR-IXPWINDi_r2_v1.2.,2013-05-21 02:38:00,
2013-05-20 22:43:00,67.2,66.3,30.02,SE,132,0.0,0.0,97,0.00,,,0.04,HR-IXPWINDi_r2_v1.2.,2013-05-21 02:43:00,
2013-05-20 22:48:00,67.1,66.2,30.01,SE,132,0.0,0.0,97,0.00,,,0.04,HR-IXPWINDi_r2_v1.2.,2013-05-21 02:48:00,
2013-05-20 22:53:00,66.9,66.0,30.01,SE,132,0.0,0.0,97,0.00,,,0.04,HR-IXPWINDi_r2_v1.2.,2013-05-21 02:53:00,
2013-05-20 22:58:00,66.8,65.9,30.01,SE,132,0.0,0.0,97,0.00,,,0.04,HR-IXPWINDi_r2_v1.2.,2013-05-21 02:58:00,
2013-05-20 23:04:00,66.6,65.7,30.01,SE,132,0.0,0.0,97,0.00,,,0.04,HR-IXPWINDi_r2_v1.2.,2013-05-21 03:04:00,
2013-05-20 23:09:00,66.5,65.9,30.01,SE,132,0.0,0.0,98,0.00,,,0.04,HR-IXPWINDi_r2_v1.2.,2013-05-21 03:09:00,
2013-05-20 23:14:00,66.4,65.5,30.01,SE,132,0.0,0.0,97,0.00,,,0.04,HR-IXPWINDi_r2_v1.2.,2013-05-21 03:14:00,
2013-05-20 23:19:00,66.3,65.4,30.01,SE,132,0.0,0.0,97,0.00,,,0.04,HR-IXPWINDi_r2_v1.2.,2013-05-21 03:19:00,
2013-05-20 23:25:00,66.1,65.5,30.01,SE,132,0.0,1.0,98,0.00,,,0.04,HR-IXPWINDi_r2_v1.2.,2013-05-21 03:25:00,
2013-05-20 23:30:00,66.0,65.4,30.01,SE,132,0.0,1.0,98,0.00,,,0.04,HR-IXPWINDi_r2_v1.2.,2013-05-21 03:30:00,
2013-05-20 23:35:00,65.9,65.3,30.02,SE,132,0.0,1.0,98,0.00,,,0.04,HR-IXPWINDi_r2_v1.2.,2013-05-21 03:35:00,
2013-05-20 23:40:00,65.9,65.3,30.02,SE,132,0.0,1.0,98,0.00,,,0.04,HR-IXPWINDi_r2_v1.2.,2013-05-21 03:40:00,
2013-05-20 23:46:00,65.9,65.3,30.01,SE,132,0.0,1.0,98,0.00,,,0.04,HR-IXPWINDi_r2_v1.2.,2013-05-21 03:46:00,
2013-05-20 23:51:00,65.8,65.2,30.01,SE,132,0.0,0.0,98,0.00,,,0.04,HR-IXPWINDi_r2_v1.2.,2013-05-21 03:51:00,
2013-05-20 23:56:00,65.7,65.1,30.01,SE,132,0.0,0.0,98,0.00,,,0.04,HR-IXPWINDi_r2_v1.2.,2013-05-21 03:56:00,